Time,TemperatureF,DewpointF,PressureIn,WindDirection,WindDirectionDegrees,WindSpeedMPH,WindSpeedGustMPH,Humidity,HourlyPrecipIn,Conditions,Clouds,dailyrainin,SoftwareType,DateUTC
2013-03-28 00:00:00,32.5,31.2,30.07,West,270,4.4,5.8,95,0.00,-SN,,0.00,WeatherDisplay:10.37,2013-03-28 04:00:00,
2013-03-28 00:01:00,32.5,31.2,30.07,West,270,4.1,5.8,95,0.00,-SN,,0.00,WeatherDisplay:10.37,2013-03-28 04:01:00,
2013-03-28 00:02:00,32.5,31.2,30.07,SW,225,4.1,5.8,95,0.00,-SN,,0.00,WeatherDisplay:10.37,2013-03-28 04:02:00,
2013-03-28 00:07:00,32.5,31.2,30.07,SW,225,3.1,3.7,95,0.00,-SN,,0.00,WeatherDisplay:10.37,2013-03-28 04:07:00,
2013-03-28 00:12:00,32.4,31.1,30.07,SSW,202,3.1,3.7,95,0.00,-SN,,0.00,WeatherDisplay:10.37,2013-03-28 04:12:00,
2013-03-28 00:17:00,32.4,31.1,30.07,SW,225,4.3,4.6,95,0.00,-SN,,0.00,WeatherDisplay:10.37,2013-03-28 04:17:00,
2013-03-28 00:22:00,32.4,31.1,30.07,SW,225,2.3,3.5,95,0.00,-SN,,0.00,WeatherDisplay:10.37,2013-03-28 04:22:00,
2013-03-28 00:27:00,32.4,31.1,30.07,WNW,292,2.4,2.7,95,0.00,-SN,,0.00,WeatherDisplay:10.37,2013-03-28 04:27:00,
2013-03-28 00:32:00,32.4,31.1,30.07,WSW,248,1.8,3.5,95,0.00,-SN,,0.00,WeatherDisplay:10.37,2013-03-28 04:32:00,
2013-03-28 00:37:00,32.4,31.1,30.07,SW,225,1.4,1.7,95,0.00,-SN,,0.00,WeatherDisplay:10.37,2013-03-28 04:37:00,
2013-03-28 00:42:00,32.4,31.1,30.07,West,270,2.2,2.3,95,0.00,-SN,,0.00,WeatherDisplay:10.37,2013-03-28 04:42:00,
2013-03-28 00:47:00,32.4,31.1,30.07,SW,225,1.9,3.5,95,0.00,-SN,,0.00,WeatherDisplay:10.37,2013-03-28 04:47:00,
2013-03-28 00:52:00,32.4,31.1,30.08,SW,225,3.0,4.6,95,0.00,-SN,,0.00,WeatherDisplay:10.37,2013-03-28 04:52:00,
2013-03-28 00:58:00,32.2,30.9,30.08,SW,225,1.9,2.7,95,0.00,-SN,,0.00,WeatherDisplay:10.37,2013-03-28 04:58:00,
2013-03-28 01:03:00,32.2,30.9,30.08,WSW,248,3.7,4.2,95,0.00,-SN,,0.00,WeatherDisplay:10.37,2013-03-28 05:03:00,
2013-03-28 01:08:00,32.2,30.9,30.07,West,270,2.2,3.5,95,0.00,-SN,,0.00,WeatherDisplay:10.37,2013-03-28 05:08:00,
2013-03-28 01:13:00,32.2,30.9,30.07,NW,315,3.5,3.5,95,0.00,-SN,,0.00,WeatherDisplay:10.37,2013-03-28 05:13:00,
2013-03-28 01:18:00,32.2,30.9,30.08,NNW,338,2.0,2.3,95,0.00,-SN,,0.00,WeatherDisplay:10.37,2013-03-28 05:18:00,
2013-03-28 01:23:00,32.2,30.9,30.08,SW,225,1.7,2.3,95,0.00,-SN,,0.00,WeatherDisplay:10.37,2013-03-28 05:23:00,
2013-03-28 01:28:00,32.2,30.9,30.08,SW,225,1.2,2.3,95,0.00,-SN,,0.00,WeatherDisplay:10.37,2013-03-28 05:28:00,
2013-03-28 01:33:00,32.2,30.9,30.08,WSW,248,2.7,2.7,95,0.00,OVC,,0.00,WeatherDisplay:10.37,2013-03-28 05:33:00,
2013-03-28 01:38:00,32.2,30.9,30.08,WNW,292,2.4,2.7,95,0.00,OVC,,0.00,WeatherDisplay:10.37,2013-03-28 05:38:00,
2013-03-28 01:43:00,32.2,30.9,30.08,SW,225,1.2,2.7,95,0.00,OVC,,0.00,WeatherDisplay:10.37,2013-03-28 05:43:00,
2013-03-28 01:48:00,32.2,30.9,30.08,West,270,2.3,2.7,95,0.00,OVC,,0.00,WeatherDisplay:10.37,2013-03-28 05:48:00,
2013-03-28 01:53:00,32.2,30.9,30.07,West,270,1.8,3.5,95,0.00,OVC,,0.00,WeatherDisplay:10.37,2013-03-28 05:53:00,
2013-03-28 01:58:00,32.2,30.9,30.07,WSW,248,1.8,2.3,95,0.00,OVC,,0.00,WeatherDisplay:10.37,2013-03-28 05:58:00,
2013-03-28 02:03:00,32.2,30.9,30.07,West,270,2.2,2.3,95,0.00,OVC,,0.00,WeatherDisplay:10.37,2013-03-28 06:03:00,
2013-03-28 02:08:00,32.2,30.9,30.08,WNW,292,2.1,2.3,95,0.00,OVC,,0.00,WeatherDisplay:10.37,2013-03-28 06:08:00,
2013-03-28 02:13:00,32.2,30.9,30.08,West,270,2.8,3.7,95,0.00,OVC,,0.00,WeatherDisplay:10.37,2013-03-28 06:13:00,
2013-03-28 02:18:00,32.2,30.9,30.08,SW,225,2.6,3.5,95,0.00,OVC,,0.00,WeatherDisplay:10.37,2013-03-28 06:18:00,
2013-03-28 02:23:00,32.2,30.9,30.08,SW,225,1.8,3.5,95,0.00,OVC,,0.00,WeatherDisplay:10.37,2013-03-28 06:23:00,
2013-03-28 02:28:00,32.2,30.9,30.07,SW,225,1.9,2.3,95,0.00,OVC,,0.00,WeatherDisplay:10.37,2013-03-28 06:28:00,
2013-03-28 02:33:00,32.2,30.9,30.07,SW,225,1.7,2.3,95,0.00,OVC,,0.00,WeatherDisplay:10.37,2013-03-28 06:33:00,
2013-03-28 02:38:00,32.2,30.9,30.07,WNW,292,2.7,2.7,95,0.00,OVC,,0.00,WeatherDisplay:10.37,2013-03-28 06:38:00,
2013-03-28 02:43:00,32.2,30.9,30.08,SW,225,2.2,2.3,95,0.00,OVC,,0.00,WeatherDisplay:10.37,2013-03-28 06:43:00,
2013-03-28 02:48:00,32.2,30.9,30.08,WSW,248,1.7,2.3,95,0.00,OVC,,0.00,WeatherDisplay:10.37,2013-03-28 06:48:00,
2013-03-28 02:53:00,32.2,30.9,30.08,SW,225,2.3,2.3,95,0.00,OVC,,0.00,WeatherDisplay:10.37,2013-03-28 06:53:00,
2013-03-28 02:58:00,32.2,30.9,30.08,WSW,248,2.4,3.5,95,0.00,OVC,,0.00,WeatherDisplay:10.37,2013-03-28 06:58:00,
2013-03-28 03:03:00,32.2,30.9,30.08,West,270,2.8,3.7,95,0.00,-SN,,0.00,WeatherDisplay:10.37,2013-03-28 07:03:00,
2013-03-28 03:08:00,32.2,30.9,30.08,SW,225,3.6,3.6,95,0.00,-SN,,0.00,WeatherDisplay:10.37,2013-03-28 07:08:00,
2013-03-28 03:13:00,32.2,30.9,30.08,WNW,292,2.7,3.7,95,0.00,-SN,,0.00,WeatherDisplay:10.37,2013-03-28 07:13:00,
2013-03-28 03:18:00,32.2,30.9,30.08,SW,225,2.9,3.7,95,0.00,-SN,,0.00,WeatherDisplay:10.37,2013-03-28 07:18:00,
2013-03-28 03:23:00,32.2,30.9,30.08,SW,225,2.2,2.7,95,0.00,-SN,,0.00,WeatherDisplay:10.37,2013-03-28 07:23:00,
2013-03-28 03:28:00,32.4,31.1,30.08,SW,225,3.5,4.6,95,0.00,-SN,,0.00,WeatherDisplay:10.37,2013-03-28 07:28:00,
2013-03-28 03:33:00,32.4,31.1,30.08,SW,225,2.2,2.3,95,0.00,-SN,,0.00,WeatherDisplay:10.37,2013-03-28 07:33:00,
2013-03-28 03:38:00,32.4,31.1,30.08,SSW,202,3.0,4.6,95,0.00,-SN,,0.00,WeatherDisplay:10.37,2013-03-28 07:38:00,
2013-03-28 03:43:00,32.4,31.1,30.08,SW,225,2.1,3.5,95,0.00,-SN,,0.00,WeatherDisplay:10.37,2013-03-28 07:43:00,
2013-03-28 03:48:00,32.4,31.1,30.08,SW,225,2.4,3.2,95,0.00,-SN,,0.00,WeatherDisplay:10.37,2013-03-28 07:48:00,
2013-03-28 03:53:00,32.4,31.1,30.08,SSW,202,1.7,2.3,95,0.00,-SN,,0.00,WeatherDisplay:10.37,2013-03-28 07:53:00,
2013-03-28 03:58:00,32.4,31.1,30.08,West,270,2.3,4.6,95,0.00,-SN,,0.00,WeatherDisplay:10.37,2013-03-28 07:58:00,
2013-03-28 04:03:00,32.4,31.1,30.08,WSW,248,2.2,2.3,95,0.00,-SN,,0.00,WeatherDisplay:10.37,2013-03-28 08:03:00,
2013-03-28 04:08:00,32.4,31.1,30.08,WSW,248,3.1,3.5,95,0.00,-SN,,0.00,WeatherDisplay:10.37,2013-03-28 08:08:00,
2013-03-28 04:13:00,32.4,31.1,30.08,West,270,2.8,2.8,95,0.00,-SN,,0.00,WeatherDisplay:10.37,2013-03-28 08:13:00,
2013-03-28 04:18:00,32.4,31.1,30.08,WSW,248,1.7,2.3,95,0.00,-SN,,0.00,WeatherDisplay:10.37,2013-03-28 08:18:00,
2013-03-28 04:23:00,32.4,31.1,30.08,NNE,22,1.6,2.3,95,0.00,-SN,,0.00,WeatherDisplay:10.37,2013-03-28 08:23:00,
2013-03-28 04:28:00,32.4,31.1,30.08,West,270,2.0,2.3,95,0.01,-SN,,0.01,WeatherDisplay:10.37,2013-03-28 08:28:00,
2013-03-28 04:33:00,32.4,31.1,30.08,West,270,2.4,3.5,95,0.01,-SN,,0.01,WeatherDisplay:10.37,2013-03-28 08:33:00,
2013-03-28 04:38:00,32.4,31.1,30.08,West,270,2.5,2.7,95,0.01,-SN,,0.01,WeatherDisplay:10.37,2013-03-28 08:38:00,
2013-03-28 04:43:00,32.4,31.1,30.08,West,270,3.3,3.5,95,0.01,-SN,,0.01,WeatherDisplay:10.37,2013-03-28 08:43:00,
2013-03-28 04:48:00,32.4,31.1,30.08,West,270,2.3,3.5,95,0.01,-SN,,0.01,WeatherDisplay:10.37,2013-03-28 08:48:00,
2013-03-28 04:53:00,32.4,31.1,30.08,SW,225,2.7,3.5,95,0.01,-SN,,0.01,WeatherDisplay:10.37,2013-03-28 08:53:00,
2013-03-28 04:58:00,32.4,31.1,30.08,WSW,248,2.8,3.5,95,0.01,-SN,,0.01,WeatherDisplay:10.37,2013-03-28 08:58:00,
2013-03-28 05:03:00,32.4,31.1,30.08,West,270,2.6,3.5,95,0.02,-SN,,0.02,WeatherDisplay:10.37,2013-03-28 09:03:00,
2013-03-28 05:08:00,32.4,31.1,30.08,SSW,202,2.1,2.7,95,0.02,-SN,,0.02,WeatherDisplay:10.37,2013-03-28 09:08:00,
2013-03-28 05:13:00,32.4,31.1,30.08,SW,225,3.5,4.6,95,0.02,-SN,,0.02,WeatherDisplay:10.37,2013-03-28 09:13:00,
2013-03-28 05:18:00,32.4,31.1,30.08,West,270,3.2,4.6,95,0.02,-SN,,0.02,WeatherDisplay:10.37,2013-03-28 09:18:00,
2013-03-28 05:23:00,32.2,30.9,30.08,SW,225,3.5,4.6,95,0.02,-SN,,0.02,WeatherDisplay:10.37,2013-03-28 09:23:00,
2013-03-28 05:28:00,32.2,30.9,30.09,SW,225,2.7,3.5,95,0.01,-SN,,0.02,WeatherDisplay:10.37,2013-03-28 09:28:00,
2013-03-28 05:33:00,32.2,30.9,30.09,West,270,2.7,3.7,95,0.01,-SN,,0.02,WeatherDisplay:10.37,2013-03-28 09:33:00,
2013-03-28 05:38:00,32.2,30.9,30.09,ENE,68,2.6,3.7,95,0.01,-SN,,0.02,WeatherDisplay:10.37,2013-03-28 09:38:00,
2013-03-28 05:43:00,32.2,30.9,30.09,SW,225,2.9,3.5,95,0.01,-SN,,0.02,WeatherDisplay:10.37,2013-03-28 09:43:00,
2013-03-28 05:48:00,32.2,30.9,30.09,West,270,3.0,3.5,95,0.01,-SN,,0.02,WeatherDisplay:10.37,2013-03-28 09:48:00,
2013-03-28 05:53:00,32.2,30.9,30.09,West,270,2.3,2.3,95,0.01,-SN,,0.02,WeatherDisplay:10.37,2013-03-28 09:53:00,
2013-03-28 05:58:00,32.2,30.9,30.09,SW,225,2.6,3.5,95,0.01,-SN,,0.02,WeatherDisplay:10.37,2013-03-28 09:58:00,
2013-03-28 06:03:00,32.2,30.9,30.09,West,270,2.3,3.5,95,0.00,-SN,,0.02,WeatherDisplay:10.37,2013-03-28 10:03:00,
2013-03-28 06:08:00,32.2,30.9,30.09,West,270,2.0,2.7,95,0.00,-SN,,0.02,WeatherDisplay:10.37,2013-03-28 10:08:00,
2013-03-28 06:13:00,32.2,30.9,30.09,SSW,202,2.1,2.3,95,0.00,-SN,,0.02,WeatherDisplay:10.37,2013-03-28 10:13:00,
2013-03-28 06:18:00,32.2,30.9,30.09,West,270,2.1,2.7,95,0.00,-SN,,0.02,WeatherDisplay:10.37,2013-03-28 10:18:00,
2013-03-28 06:23:00,32.2,30.9,30.09,West,270,1.9,2.7,95,0.00,-SN,,0.02,WeatherDisplay:10.37,2013-03-28 10:23:00,
2013-03-28 06:28:00,32.2,30.9,30.09,West,270,2.0,2.3,95,0.00,-SN,,0.02,WeatherDisplay:10.37,2013-03-28 10:28:00,
2013-03-28 06:33:00,32.2,30.9,30.09,WSW,248,2.3,3.5,95,0.00,-SN,,0.02,WeatherDisplay:10.37,2013-03-28 10:33:00,
2013-03-28 06:38:00,32.2,30.9,30.09,West,270,2.1,2.3,95,0.00,-SN,,0.02,WeatherDisplay:10.37,2013-03-28 10:38:00,
2013-03-28 06:43:00,32.2,30.9,30.10,West,270,2.9,3.5,95,0.00,-SN,,0.02,WeatherDisplay:10.37,2013-03-28 10:43:00,
2013-03-28 06:48:00,32.2,30.9,30.10,NNE,22,2.1,3.5,95,0.00,-SN,,0.02,WeatherDisplay:10.37,2013-03-28 10:48:00,
2013-03-28 06:53:00,32.2,30.9,30.10,West,270,2.3,3.5,95,0.00,-SN,,0.02,WeatherDisplay:10.37,2013-03-28 10:53:00,
2013-03-28 06:58:00,32.2,30.9,30.10,West,270,2.3,3.2,95,0.00,-SN,,0.02,WeatherDisplay:10.37,2013-03-28 10:58:00,
2013-03-28 07:03:00,32.2,30.9,30.10,WNW,292,2.4,3.5,95,0.00,-SN,,0.02,WeatherDisplay:10.37,2013-03-28 11:03:00,
2013-03-28 07:08:00,32.2,30.9,30.10,SW,225,2.5,2.7,95,0.00,-SN,,0.02,WeatherDisplay:10.37,2013-03-28 11:08:00,
2013-03-28 07:13:00,32.2,30.9,30.10,West,270,2.3,2.3,95,0.00,-SN,,0.02,WeatherDisplay:10.37,2013-03-28 11:13:00,
2013-03-28 07:18:00,32.2,30.9,30.11,ESE,112,2.6,3.5,95,0.00,-SN,,0.02,WeatherDisplay:10.37,2013-03-28 11:18:00,
2013-03-28 07:23:00,32.2,30.9,30.11,WSW,248,2.1,3.5,95,0.00,-SN,,0.02,WeatherDisplay:10.37,2013-03-28 11:23:00,
2013-03-28 07:28:00,32.2,30.9,30.11,West,270,2.5,3.2,95,0.00,-SN,,0.02,WeatherDisplay:10.37,2013-03-28 11:28:00,
2013-03-28 07:33:00,32.2,30.9,30.11,West,270,3.1,3.5,95,0.00,-SN,,0.02,WeatherDisplay:10.37,2013-03-28 11:33:00,
2013-03-28 07:38:00,32.2,30.9,30.11,WSW,248,2.6,3.5,95,0.00,-SN,,0.02,WeatherDisplay:10.37,2013-03-28 11:38:00,
2013-03-28 07:43:00,32.4,31.1,30.12,East,90,2.2,2.3,95,0.00,-SN,,0.02,WeatherDisplay:10.37,2013-03-28 11:43:00,
2013-03-28 07:48:00,32.4,31.1,30.12,South,180,2.7,3.5,95,0.00,-SN,,0.02,WeatherDisplay:10.37,2013-03-28 11:48:00,
2013-03-28 07:53:00,32.5,31.2,30.12,SW,225,2.6,4.2,95,0.01,-SN,,0.03,WeatherDisplay:10.37,2013-03-28 11:53:00,
2013-03-28 07:58:00,32.7,31.4,30.12,WSW,248,3.0,3.5,95,0.01,-SN,,0.03,WeatherDisplay:10.37,2013-03-28 11:58:00,
2013-03-28 08:03:00,32.7,31.4,30.12,SSW,202,3.5,3.7,95,0.01,-SN,,0.03,WeatherDisplay:10.37,2013-03-28 12:03:00,
2013-03-28 08:08:00,32.9,31.6,30.13,West,270,3.3,4.6,95,0.01,-SN,,0.03,WeatherDisplay:10.37,2013-03-28 12:08:00,
2013-03-28 08:13:00,33.1,31.8,30.13,West,270,4.0,4.6,95,0.01,-SN,,0.03,WeatherDisplay:10.37,2013-03-28 12:13:00,
2013-03-28 08:18:00,33.3,32.0,30.13,SW,225,3.0,3.5,95,0.01,-SN,,0.03,WeatherDisplay:10.37,2013-03-28 12:18:00,
2013-03-28 08:23:00,33.6,32.3,30.13,WSW,248,3.1,3.5,95,0.01,-SN,,0.03,WeatherDisplay:10.37,2013-03-28 12:23:00,
2013-03-28 08:28:00,33.8,32.5,30.13,West,270,4.1,4.6,95,0.01,-SN,,0.03,WeatherDisplay:10.37,2013-03-28 12:28:00,
2013-03-28 08:33:00,34.2,32.9,30.13,WSW,248,2.0,3.2,95,0.01,OVC,,0.03,WeatherDisplay:10.37,2013-03-28 12:33:00,
2013-03-28 08:38:00,34.7,33.4,30.13,SW,225,2.6,3.2,95,0.01,OVC,,0.03,WeatherDisplay:10.37,2013-03-28 12:38:00,
2013-03-28 08:43:00,34.7,33.2,30.13,SW,225,3.3,4.6,94,0.02,RA,,0.04,WeatherDisplay:10.37,2013-03-28 12:43:00,
2013-03-28 08:48:00,35.2,33.4,30.13,North,360,2.2,2.7,93,0.02,RA,,0.04,WeatherDisplay:10.37,2013-03-28 12:48:00,
2013-03-28 08:53:00,35.6,33.5,30.13,SSW,202,2.7,3.5,92,0.01,OVC,,0.04,WeatherDisplay:10.37,2013-03-28 12:53:00,
2013-03-28 08:58:00,36.0,33.6,30.13,West,270,2.6,3.2,91,0.01,OVC,,0.04,WeatherDisplay:10.37,2013-03-28 12:58:00,
2013-03-28 09:03:00,36.7,34.0,30.13,WSW,248,3.3,3.5,90,0.02,RA,,0.05,WeatherDisplay:10.37,2013-03-28 13:03:00,
2013-03-28 09:08:00,36.7,33.8,30.13,West,270,3.2,3.5,89,0.02,RA,,0.05,WeatherDisplay:10.37,2013-03-28 13:08:00,
2013-03-28 09:13:00,37.4,33.9,30.13,SW,225,2.5,3.7,87,0.03,RA,,0.06,WeatherDisplay:10.37,2013-03-28 13:13:00,
2013-03-28 09:18:00,36.9,33.4,30.14,West,270,4.1,4.6,87,0.03,RA,,0.06,WeatherDisplay:10.37,2013-03-28 13:18:00,
2013-03-28 09:23:00,37.0,33.5,30.14,West,270,4.0,4.6,87,0.04,RA,,0.07,WeatherDisplay:10.37,2013-03-28 13:23:00,
2013-03-28 09:28:00,37.0,33.2,30.14,SW,225,3.6,4.6,86,0.04,RA,,0.07,WeatherDisplay:10.37,2013-03-28 13:28:00,
2013-03-28 09:33:00,37.4,33.6,30.14,West,270,4.0,4.6,86,0.05,RA,,0.08,WeatherDisplay:10.37,2013-03-28 13:33:00,
2013-03-28 09:38:00,37.6,33.5,30.14,WSW,248,3.5,4.6,85,0.05,RA,,0.08,WeatherDisplay:10.37,2013-03-28 13:38:00,
2013-03-28 09:43:00,38.3,33.9,30.14,West,270,3.3,4.6,84,0.05,RA,,0.09,WeatherDisplay:10.37,2013-03-28 13:43:00,
2013-03-28 09:48:00,38.3,33.6,30.14,WNW,292,3.8,4.6,83,0.06,RA,,0.10,WeatherDisplay:10.37,2013-03-28 13:48:00,
2013-03-28 09:53:00,38.5,33.8,30.14,SW,225,4.1,4.7,83,0.06,RA,,0.10,WeatherDisplay:10.37,2013-03-28 13:53:00,
2013-03-28 09:58:00,37.8,33.4,30.14,WSW,248,3.4,4.7,84,0.07,RA,,0.11,WeatherDisplay:10.37,2013-03-28 13:58:00,
2013-03-28 10:03:00,36.3,33.1,30.14,WSW,248,4.0,5.8,88,0.07,RA,,0.12,WeatherDisplay:10.37,2013-03-28 14:03:00,
2013-03-28 10:08:00,36.3,33.1,30.14,SW,225,4.2,5.8,88,0.07,RA,,0.12,WeatherDisplay:10.37,2013-03-28 14:08:00,
2013-03-28 10:13:00,36.5,33.0,30.14,WSW,248,4.1,4.7,87,0.07,RA,,0.13,WeatherDisplay:10.37,2013-03-28 14:13:00,
2013-03-28 10:18:00,36.9,33.4,30.15,West,270,4.2,4.7,87,0.08,RA,,0.14,WeatherDisplay:10.37,2013-03-28 14:18:00,
2013-03-28 10:23:00,36.9,33.4,30.15,West,270,3.9,4.6,87,0.08,RA,,0.15,WeatherDisplay:10.37,2013-03-28 14:23:00,
2013-03-28 10:28:00,37.0,33.5,30.15,WSW,248,2.7,4.6,87,0.08,RA,,0.16,WeatherDisplay:10.37,2013-03-28 14:28:00,
2013-03-28 10:33:00,37.4,33.6,30.15,SW,225,4.2,5.8,86,0.08,RA,,0.17,WeatherDisplay:10.37,2013-03-28 14:33:00,
2013-03-28 10:38:00,37.4,33.3,30.15,West,270,3.9,4.6,85,0.09,RA,,0.17,WeatherDisplay:10.37,2013-03-28 14:38:00,
2013-03-28 10:43:00,37.4,33.3,30.15,SW,225,3.7,3.7,85,0.09,RA,,0.18,WeatherDisplay:10.37,2013-03-28 14:43:00,
2013-03-28 10:48:00,37.8,33.4,30.15,West,270,3.9,4.6,84,0.09,RA,,0.19,WeatherDisplay:10.37,2013-03-28 14:48:00,
2013-03-28 10:53:00,37.9,33.5,30.15,WSW,248,3.8,6.3,84,0.09,RA,,0.19,WeatherDisplay:10.37,2013-03-28 14:53:00,
2013-03-28 10:58:00,38.5,33.5,30.15,West,270,4.8,5.8,82,0.09,RA,,0.20,WeatherDisplay:10.37,2013-03-28 14:58:00,
2013-03-28 11:03:00,38.7,33.7,30.15,WNW,292,2.8,4.6,82,0.09,RA,,0.21,WeatherDisplay:10.37,2013-03-28 15:03:00,
2013-03-28 11:08:00,38.7,34.0,30.16,ESE,112,3.5,4.6,83,0.10,RA,,0.22,WeatherDisplay:10.37,2013-03-28 15:08:00,
2013-03-28 11:13:00,38.8,33.8,30.16,WSW,248,4.7,5.8,82,0.10,RA,,0.23,WeatherDisplay:10.37,2013-03-28 15:13:00,
2013-03-28 11:18:00,38.7,33.7,30.16,West,270,4.2,4.6,82,0.09,RA,,0.23,WeatherDisplay:10.37,2013-03-28 15:18:00,
2013-03-28 11:23:00,38.8,33.8,30.16,WSW,248,3.2,4.6,82,0.09,RA,,0.24,WeatherDisplay:10.37,2013-03-28 15:23:00,
2013-03-28 11:28:00,38.8,33.8,30.16,WNW,292,4.9,5.8,82,0.10,RA,,0.25,WeatherDisplay:10.37,2013-03-28 15:28:00,
2013-03-28 11:33:00,38.7,33.7,30.16,WNW,292,5.3,5.8,82,0.10,RA,,0.26,WeatherDisplay:10.37,2013-03-28 15:33:00,
2013-03-28 11:38:00,39.0,33.7,30.16,WSW,248,3.5,4.6,81,0.09,RA,,0.26,WeatherDisplay:10.37,2013-03-28 15:38:00,
2013-03-28 11:43:00,39.0,34.0,30.16,WSW,248,4.9,5.8,82,0.09,RA,,0.27,WeatherDisplay:10.37,2013-03-28 15:43:00,
2013-03-28 11:48:00,38.8,34.1,30.16,West,270,5.0,5.8,83,0.09,RA,,0.28,WeatherDisplay:10.37,2013-03-28 15:48:00,
2013-03-28 11:53:00,38.5,34.1,30.17,WSW,248,4.5,5.3,84,0.09,RA,,0.28,WeatherDisplay:10.37,2013-03-28 15:53:00,
2013-03-28 11:58:00,38.8,34.1,30.17,NNW,338,4.9,5.8,83,0.09,RA,,0.29,WeatherDisplay:10.37,2013-03-28 15:58:00,
2013-03-28 12:03:00,39.4,34.4,30.17,WSW,248,4.3,4.6,82,0.09,RA,,0.30,WeatherDisplay:10.37,2013-03-28 16:03:00,
2013-03-28 12:08:00,40.1,34.4,30.17,West,270,4.0,4.6,80,0.09,RA,,0.31,WeatherDisplay:10.37,2013-03-28 16:08:00,
2013-03-28 12:13:00,40.1,34.1,30.17,SW,225,4.9,6.9,79,0.09,RA,,0.32,WeatherDisplay:10.37,2013-03-28 16:13:00,
2013-03-28 12:18:00,39.9,34.2,30.16,West,270,5.3,5.8,80,0.10,RA,,0.33,WeatherDisplay:10.37,2013-03-28 16:18:00,
2013-03-28 12:23:00,40.3,34.6,30.16,West,270,4.2,5.8,80,0.09,RA,,0.33,WeatherDisplay:10.37,2013-03-28 16:23:00,
2013-03-28 12:28:00,40.1,34.4,30.16,NW,315,4.9,4.9,80,0.09,RA,,0.34,WeatherDisplay:10.37,2013-03-28 16:28:00,
2013-03-28 12:33:00,40.6,34.6,30.16,NNW,338,5.6,6.9,79,0.08,RA,,0.34,WeatherDisplay:10.37,2013-03-28 16:33:00,
2013-03-28 12:38:00,41.2,35.2,30.16,West,270,4.0,4.6,79,0.09,RA,,0.35,WeatherDisplay:10.37,2013-03-28 16:38:00,
2013-03-28 12:43:00,41.9,34.9,30.16,WSW,248,6.4,7.8,76,0.08,RA,,0.35,WeatherDisplay:10.37,2013-03-28 16:43:00,
2013-03-28 12:48:00,41.2,34.5,30.16,SW,225,5.7,8.1,77,0.07,OVC,,0.35,WeatherDisplay:10.37,2013-03-28 16:48:00,
2013-03-28 12:53:00,39.9,34.2,30.16,SW,225,5.9,6.9,80,0.07,OVC,,0.35,WeatherDisplay:10.37,2013-03-28 16:53:00,
2013-03-28 12:58:00,39.4,34.1,30.16,West,270,4.8,6.9,81,0.06,OVC,,0.35,WeatherDisplay:10.37,2013-03-28 16:58:00,
2013-03-28 13:03:00,39.2,33.9,30.16,West,270,5.5,6.3,81,0.05,OVC,,0.35,WeatherDisplay:10.37,2013-03-28 17:03:00,
2013-03-28 13:08:00,39.7,34.0,30.15,WSW,248,6.2,8.1,80,0.04,OVC,,0.35,WeatherDisplay:10.37,2013-03-28 17:08:00,
2013-03-28 13:13:00,39.2,33.5,30.15,WSW,248,5.5,8.1,80,0.03,OVC,,0.35,WeatherDisplay:10.37,2013-03-28 17:13:00,
2013-03-28 13:18:00,39.6,34.2,30.16,WSW,248,5.1,6.9,81,0.02,OVC,,0.35,WeatherDisplay:10.37,2013-03-28 17:18:00,
2013-03-28 13:23:00,39.0,33.7,30.16,West,270,5.4,6.9,81,0.02,OVC,,0.35,WeatherDisplay:10.37,2013-03-28 17:23:00,
2013-03-28 13:28:00,38.8,33.8,30.16,WNW,292,5.9,6.9,82,0.01,OVC,,0.35,WeatherDisplay:10.37,2013-03-28 17:28:00,
2013-03-28 13:33:00,38.7,33.7,30.16,East,90,6.8,6.9,82,0.01,OVC,,0.35,WeatherDisplay:10.37,2013-03-28 17:33:00,
2013-03-28 13:38:00,38.7,33.7,30.16,South,180,6.7,6.9,82,0.00,OVC,,0.35,WeatherDisplay:10.37,2013-03-28 17:38:00,
2013-03-28 13:43:00,38.3,33.6,30.16,WSW,248,5.6,7.3,83,0.00,OVC,,0.35,WeatherDisplay:10.37,2013-03-28 17:43:00,
2013-03-28 13:48:00,38.5,33.8,30.16,South,180,3.1,5.8,83,0.00,OVC,,0.35,WeatherDisplay:10.37,2013-03-28 17:48:00,
2013-03-28 13:53:00,39.0,34.0,30.17,South,180,5.6,5.8,82,0.00,OVC,,0.35,WeatherDisplay:10.37,2013-03-28 17:53:00,
2013-03-28 13:58:00,38.3,33.6,30.17,WSW,248,7.7,8.1,83,0.00,OVC,,0.35,WeatherDisplay:10.37,2013-03-28 17:58:00,
2013-03-28 14:03:00,38.3,33.9,30.17,SW,225,5.0,7.8,84,0.00,OVC,,0.35,WeatherDisplay:10.37,2013-03-28 18:03:00,
2013-03-28 14:08:00,38.3,33.9,30.17,WSW,248,5.1,5.8,84,0.00,OVC,,0.35,WeatherDisplay:10.37,2013-03-28 18:08:00,
2013-03-28 14:13:00,37.8,33.4,30.17,WSW,248,6.5,6.8,84,0.00,OVC,,0.35,WeatherDisplay:10.37,2013-03-28 18:13:00,
2013-03-28 14:18:00,37.6,33.5,30.16,West,270,6.0,6.9,85,0.00,OVC,,0.35,WeatherDisplay:10.37,2013-03-28 18:18:00,
2013-03-28 14:23:00,37.8,33.7,30.16,WSW,248,5.5,6.9,85,0.00,OVC,,0.35,WeatherDisplay:10.37,2013-03-28 18:23:00,
2013-03-28 14:28:00,37.8,33.7,30.16,SSW,202,5.2,5.8,85,0.00,OVC,,0.35,WeatherDisplay:10.37,2013-03-28 18:28:00,
2013-03-28 14:33:00,37.8,33.4,30.16,WSW,248,6.1,8.1,84,0.00,OVC,,0.35,WeatherDisplay:10.37,2013-03-28 18:33:00,
2013-03-28 14:38:00,37.9,33.5,30.16,West,270,6.6,9.2,84,0.00,OVC,,0.35,WeatherDisplay:10.37,2013-03-28 18:38:00,
2013-03-28 14:43:00,38.3,33.9,30.16,WSW,248,7.1,10.4,84,0.00,OVC,,0.35,WeatherDisplay:10.37,2013-03-28 18:43:00,
2013-03-28 14:48:00,38.3,33.9,30.16,WSW,248,8.5,9.2,84,0.00,OVC,,0.35,WeatherDisplay:10.37,2013-03-28 18:48:00,
2013-03-28 14:53:00,37.9,33.5,30.16,WSW,248,8.8,10.4,84,0.00,OVC,,0.35,WeatherDisplay:10.37,2013-03-28 18:53:00,
2013-03-28 14:58:00,37.8,33.4,30.16,WNW,292,5.8,8.1,84,0.00,OVC,,0.35,WeatherDisplay:10.37,2013-03-28 18:58:00,
2013-03-28 15:03:00,37.9,33.5,30.16,West,270,4.3,7.3,84,0.00,OVC,,0.35,WeatherDisplay:10.37,2013-03-28 19:03:00,
2013-03-28 15:08:00,37.6,33.2,30.16,SW,225,7.6,8.1,84,0.00,OVC,,0.35,WeatherDisplay:10.37,2013-03-28 19:08:00,
2013-03-28 15:13:00,37.4,33.0,30.16,West,270,8.3,11.4,84,0.00,OVC,,0.35,WeatherDisplay:10.37,2013-03-28 19:13:00,
2013-03-28 15:18:00,37.4,33.0,30.16,West,270,6.8,9.2,84,0.00,OVC,,0.35,WeatherDisplay:10.37,2013-03-28 19:18:00,
2013-03-28 15:23:00,37.6,33.2,30.16,SW,225,6.8,6.9,84,0.00,OVC,,0.35,WeatherDisplay:10.37,2013-03-28 19:23:00,
2013-03-28 15:28:00,37.8,33.4,30.17,WNW,292,6.4,6.9,84,0.00,OVC,,0.35,WeatherDisplay:10.37,2013-03-28 19:28:00,
2013-03-28 15:33:00,37.9,33.5,30.17,West,270,6.3,8.1,84,0.00,OVC,,0.35,WeatherDisplay:10.37,2013-03-28 19:33:00,
2013-03-28 15:38:00,37.9,33.5,30.17,West,270,4.7,5.8,84,0.00,OVC,,0.35,WeatherDisplay:10.37,2013-03-28 19:38:00,
2013-03-28 15:43:00,38.1,33.4,30.16,West,270,5.7,6.9,83,0.00,OVC,,0.35,WeatherDisplay:10.37,2013-03-28 19:43:00,
2013-03-28 15:48:00,38.1,33.4,30.16,WSW,248,6.0,9.2,83,0.00,OVC,,0.35,WeatherDisplay:10.37,2013-03-28 19:48:00,
2013-03-28 15:53:00,37.9,33.2,30.16,SW,225,6.5,8.1,83,0.00,OVC,,0.35,WeatherDisplay:10.37,2013-03-28 19:53:00,
2013-03-28 15:58:00,38.1,33.4,30.16,SW,225,5.4,5.8,83,0.00,OVC,,0.35,WeatherDisplay:10.37,2013-03-28 19:58:00,
2013-03-28 16:04:00,38.5,33.8,30.16,WSW,248,6.5,8.1,83,0.00,OVC,,0.35,WeatherDisplay:10.37,2013-03-28 20:04:00,
2013-03-28 16:09:00,38.1,33.4,30.16,West,270,5.3,6.9,83,0.00,OVC,,0.35,WeatherDisplay:10.37,2013-03-28 20:09:00,
2013-03-28 16:14:00,38.7,33.7,30.16,West,270,5.6,6.9,82,0.00,OVC,,0.35,WeatherDisplay:10.37,2013-03-28 20:14:00,
2013-03-28 16:19:00,38.3,33.3,30.16,West,270,6.5,8.1,82,0.00,OVC,,0.35,WeatherDisplay:10.37,2013-03-28 20:19:00,
2013-03-28 16:24:00,38.5,33.5,30.16,ENE,68,7.5,10.4,82,0.00,OVC,,0.35,WeatherDisplay:10.37,2013-03-28 20:24:00,
2013-03-28 16:29:00,38.3,33.3,30.16,WSW,248,7.4,7.8,82,0.00,OVC,,0.35,WeatherDisplay:10.37,2013-03-28 20:29:00,
2013-03-28 16:34:00,38.3,33.0,30.16,West,270,7.2,7.3,81,0.00,OVC,,0.35,WeatherDisplay:10.37,2013-03-28 20:34:00,
2013-03-28 16:39:00,38.5,33.2,30.16,West,270,3.9,8.1,81,0.00,OVC,,0.35,WeatherDisplay:10.37,2013-03-28 20:39:00,
2013-03-28 16:44:00,38.7,33.4,30.16,West,270,5.9,10.4,81,0.00,OVC,,0.35,WeatherDisplay:10.37,2013-03-28 20:44:00,
2013-03-28 16:49:00,38.3,33.0,30.16,SW,225,9.0,9.4,81,0.00,OVC,,0.35,WeatherDisplay:10.37,2013-03-28 20:49:00,
2013-03-28 16:54:00,37.9,32.9,30.17,SSW,202,8.5,8.5,82,0.00,OVC,,0.35,WeatherDisplay:10.37,2013-03-28 20:54:00,
2013-03-28 16:59:00,37.9,32.9,30.17,SW,225,8.9,10.4,82,0.00,OVC,,0.35,WeatherDisplay:10.37,2013-03-28 20:59:00,
2013-03-28 17:04:00,37.8,32.8,30.17,West,270,6.7,7.3,82,0.00,OVC,,0.35,WeatherDisplay:10.37,2013-03-28 21:04:00,
2013-03-28 17:09:00,37.4,32.7,30.17,SSW,202,7.1,8.1,83,0.00,OVC,,0.35,WeatherDisplay:10.37,2013-03-28 21:09:00,
2013-03-28 17:14:00,37.2,32.8,30.17,West,270,5.3,6.9,84,0.00,OVC,,0.35,WeatherDisplay:10.37,2013-03-28 21:14:00,
2013-03-28 17:19:00,37.0,32.9,30.17,West,270,5.5,6.8,85,0.00,OVC,,0.35,WeatherDisplay:10.37,2013-03-28 21:19:00,
2013-03-28 17:24:00,36.9,33.1,30.17,WSW,248,5.2,6.9,86,0.00,OVC,,0.35,WeatherDisplay:10.37,2013-03-28 21:24:00,
2013-03-28 17:29:00,37.0,33.2,30.17,West,270,6.3,6.9,86,0.00,OVC,,0.35,WeatherDisplay:10.37,2013-03-28 21:29:00,
2013-03-28 17:34:00,37.0,33.2,30.17,West,270,7.0,7.0,86,0.00,OVC,,0.35,WeatherDisplay:10.37,2013-03-28 21:34:00,
2013-03-28 17:39:00,37.2,33.4,30.17,West,270,4.4,5.8,86,0.00,OVC,,0.35,WeatherDisplay:10.37,2013-03-28 21:39:00,
2013-03-28 17:44:00,37.2,33.4,30.17,WSW,248,7.2,8.8,86,0.00,OVC,,0.35,WeatherDisplay:10.37,2013-03-28 21:44:00,
2013-03-28 17:49:00,37.0,33.2,30.17,West,270,7.3,9.2,86,0.00,OVC,,0.35,WeatherDisplay:10.37,2013-03-28 21:49:00,
2013-03-28 17:54:00,36.9,33.4,30.17,West,270,7.2,8.1,87,0.00,OVC,,0.35,WeatherDisplay:10.37,2013-03-28 21:54:00,
2013-03-28 17:59:00,36.7,33.2,30.17,SW,225,8.2,8.2,87,0.00,OVC,,0.35,WeatherDisplay:10.37,2013-03-28 21:59:00,
2013-03-28 18:04:00,36.5,33.3,30.17,SSW,202,6.8,8.1,88,0.00,OVC,,0.35,WeatherDisplay:10.37,2013-03-28 22:04:00,
2013-03-28 18:09:00,36.3,33.1,30.17,SSW,202,6.2,8.1,88,0.00,OVC,,0.35,WeatherDisplay:10.37,2013-03-28 22:09:00,
2013-03-28 18:14:00,36.3,33.1,30.17,NNW,338,7.5,10.4,88,0.00,OVC,,0.35,WeatherDisplay:10.37,2013-03-28 22:14:00,
2013-03-28 18:19:00,36.3,33.1,30.18,SW,225,4.3,5.8,88,0.00,OVC,,0.35,WeatherDisplay:10.37,2013-03-28 22:19:00,
2013-03-28 18:24:00,36.3,33.1,30.18,SW,225,7.0,8.1,88,0.00,OVC,,0.35,WeatherDisplay:10.37,2013-03-28 22:24:00,
2013-03-28 18:29:00,36.3,33.1,30.18,WSW,248,3.6,4.6,88,0.00,OVC,,0.35,WeatherDisplay:10.37,2013-03-28 22:29:00,
2013-03-28 18:34:00,36.1,32.9,30.18,WSW,248,8.4,9.2,88,0.00,OVC,,0.35,WeatherDisplay:10.37,2013-03-28 22:34:00,
2013-03-28 18:39:00,36.1,33.2,30.18,WSW,248,5.1,5.8,89,0.00,OVC,,0.35,WeatherDisplay:10.37,2013-03-28 22:39:00,
2013-03-28 18:44:00,36.0,33.1,30.18,SW,225,5.4,6.9,89,0.00,OVC,,0.35,WeatherDisplay:10.37,2013-03-28 22:44:00,
2013-03-28 18:49:00,36.0,33.1,30.18,West,270,4.8,5.8,89,0.00,OVC,,0.35,WeatherDisplay:10.37,2013-03-28 22:49:00,
2013-03-28 18:54:00,36.0,33.1,30.19,West,270,4.7,4.7,89,0.00,OVC,,0.35,WeatherDisplay:10.37,2013-03-28 22:54:00,
2013-03-28 18:59:00,35.8,32.9,30.19,West,270,6.7,8.1,89,0.00,OVC,,0.35,WeatherDisplay:10.37,2013-03-28 22:59:00,
2013-03-28 19:04:00,35.8,32.9,30.19,SW,225,5.3,5.8,89,0.00,OVC,,0.35,WeatherDisplay:10.37,2013-03-28 23:04:00,
2013-03-28 19:09:00,35.6,32.7,30.19,NW,315,6.4,8.1,89,0.00,OVC,,0.35,WeatherDisplay:10.37,2013-03-28 23:09:00,
2013-03-28 19:14:00,35.4,32.8,30.19,SW,225,5.5,6.9,90,0.00,OVC,,0.35,WeatherDisplay:10.37,2013-03-28 23:14:00,
2013-03-28 19:19:00,35.4,32.8,30.20,WSW,248,4.8,6.3,90,0.00,OVC,,0.35,WeatherDisplay:10.37,2013-03-28 23:19:00,
2013-03-28 19:24:00,35.2,32.6,30.20,SSW,202,6.5,7.3,90,0.00,OVC,,0.35,WeatherDisplay:10.37,2013-03-28 23:24:00,
2013-03-28 19:29:00,35.2,32.6,30.19,West,270,5.0,10.4,90,0.00,OVC,,0.35,WeatherDisplay:10.37,2013-03-28 23:29:00,
2013-03-28 19:34:00,35.2,32.6,30.19,West,270,4.2,5.8,90,0.00,OVC,,0.35,WeatherDisplay:10.37,2013-03-28 23:34:00,
2013-03-28 19:39:00,35.1,32.5,30.19,WSW,248,5.9,5.9,90,0.00,OVC,,0.35,WeatherDisplay:10.37,2013-03-28 23:39:00,
2013-03-28 19:44:00,35.1,32.5,30.19,WSW,248,3.8,6.9,90,0.00,OVC,,0.35,WeatherDisplay:10.37,2013-03-28 23:44:00,
2013-03-28 19:49:00,35.1,32.5,30.19,WSW,248,3.9,5.8,90,0.00,OVC,,0.35,WeatherDisplay:10.37,2013-03-28 23:49:00,
2013-03-28 19:54:00,35.1,32.5,30.20,West,270,6.6,9.2,90,0.00,OVC,,0.35,WeatherDisplay:10.37,2013-03-28 23:54:00,
2013-03-28 19:59:00,35.1,32.5,30.20,SSE,158,4.6,4.7,90,0.00,OVC,,0.35,WeatherDisplay:10.37,2013-03-28 23:59:00,
2013-03-28 20:04:00,35.1,32.5,30.20,SW,225,4.4,8.1,90,0.00,OVC,,0.35,WeatherDisplay:10.37,2013-03-29 00:04:00,
2013-03-28 20:09:00,35.1,32.5,30.20,West,270,4.7,5.8,90,0.00,OVC,,0.35,WeatherDisplay:10.37,2013-03-29 00:09:00,
2013-03-28 20:14:00,35.1,32.5,30.20,West,270,4.4,5.8,90,0.00,BKN,,0.35,WeatherDisplay:10.37,2013-03-29 00:14:00,
2013-03-28 20:19:00,35.1,32.5,30.20,WSW,248,2.9,4.6,90,0.00,BKN,,0.35,WeatherDisplay:10.37,2013-03-29 00:19:00,
2013-03-28 20:24:00,34.9,32.3,30.20,West,270,4.8,5.8,90,0.00,BKN,,0.35,WeatherDisplay:10.37,2013-03-29 00:24:00,
2013-03-28 20:29:00,34.9,32.3,30.20,West,270,4.5,5.8,90,0.00,BKN,,0.35,WeatherDisplay:10.37,2013-03-29 00:29:00,
2013-03-28 20:34:00,34.9,32.3,30.20,West,270,4.1,5.8,90,0.00,BKN,,0.35,WeatherDisplay:10.37,2013-03-29 00:34:00,
2013-03-28 20:39:00,34.9,32.3,30.20,West,270,5.0,5.8,90,0.00,BKN,,0.35,WeatherDisplay:10.37,2013-03-29 00:39:00,
2013-03-28 20:44:00,34.9,32.3,30.20,West,270,4.9,6.9,90,0.00,BKN,,0.35,WeatherDisplay:10.37,2013-03-29 00:44:00,
2013-03-28 20:49:00,35.1,32.5,30.20,West,270,4.7,5.8,90,0.00,BKN,,0.35,WeatherDisplay:10.37,2013-03-29 00:49:00,
2013-03-28 20:54:00,35.1,32.5,30.20,West,270,5.1,5.8,90,0.00,BKN,,0.35,WeatherDisplay:10.37,2013-03-29 00:54:00,
2013-03-28 20:59:00,35.1,32.5,30.20,West,270,3.7,5.8,90,0.00,BKN,,0.35,WeatherDisplay:10.37,2013-03-29 00:59:00,
2013-03-28 21:04:00,35.1,32.5,30.21,WSW,248,4.3,6.3,90,0.00,BKN,,0.35,WeatherDisplay:10.37,2013-03-29 01:04:00,
2013-03-28 21:09:00,35.1,32.5,30.21,South,180,4.0,4.6,90,0.00,BKN,,0.35,WeatherDisplay:10.37,2013-03-29 01:09:00,
2013-03-28 21:14:00,35.1,32.5,30.21,WSW,248,6.0,8.3,90,0.00,OVC,,0.35,WeatherDisplay:10.37,2013-03-29 01:14:00,
2013-03-28 21:19:00,35.1,32.2,30.21,WSW,248,5.2,5.8,89,0.00,OVC,,0.35,WeatherDisplay:10.37,2013-03-29 01:19:00,
2013-03-28 21:24:00,35.1,32.2,30.21,West,270,3.9,6.8,89,0.00,OVC,,0.35,WeatherDisplay:10.37,2013-03-29 01:24:00,
2013-03-28 21:29:00,35.1,32.2,30.21,West,270,5.9,6.9,89,0.00,OVC,,0.35,WeatherDisplay:10.37,2013-03-29 01:29:00,
2013-03-28 21:34:00,35.1,32.2,30.21,West,270,4.0,4.6,89,0.00,OVC,,0.35,WeatherDisplay:10.37,2013-03-29 01:34:00,
2013-03-28 21:39:00,35.1,32.2,30.21,West,270,3.3,5.8,89,0.00,OVC,,0.35,WeatherDisplay:10.37,2013-03-29 01:39:00,
2013-03-28 21:44:00,35.1,32.2,30.21,WSW,248,5.8,8.1,89,0.00,OVC,,0.35,WeatherDisplay:10.37,2013-03-29 01:44:00,
2013-03-28 21:49:00,35.1,32.2,30.21,West,270,4.7,5.8,89,0.00,OVC,,0.35,WeatherDisplay:10.37,2013-03-29 01:49:00,
2013-03-28 21:54:00,35.1,32.2,30.22,ESE,112,4.2,4.6,89,0.00,OVC,,0.35,WeatherDisplay:10.37,2013-03-29 01:54:00,
2013-03-28 21:59:00,35.1,32.2,30.22,WNW,292,4.3,4.6,89,0.00,OVC,,0.35,WeatherDisplay:10.37,2013-03-29 01:59:00,
2013-03-28 22:04:00,35.1,32.2,30.22,West,270,4.7,5.8,89,0.00,FEW,,0.35,WeatherDisplay:10.37,2013-03-29 02:04:00,
2013-03-28 22:09:00,35.1,32.2,30.22,WSW,248,6.1,7.3,89,0.00,FEW,,0.35,WeatherDisplay:10.37,2013-03-29 02:09:00,
2013-03-28 22:14:00,35.1,32.2,30.22,North,360,4.8,5.8,89,0.00,FEW,,0.35,WeatherDisplay:10.37,2013-03-29 02:14:00,
2013-03-28 22:19:00,35.1,32.2,30.22,West,270,5.8,5.8,89,0.00,FEW,,0.35,WeatherDisplay:10.37,2013-03-29 02:19:00,
2013-03-28 22:24:00,35.1,32.2,30.22,SSE,158,4.5,5.8,89,0.00,FEW,,0.35,WeatherDisplay:10.37,2013-03-29 02:24:00,
2013-03-28 22:29:00,35.1,32.2,30.21,West,270,4.0,5.8,89,0.00,FEW,,0.35,WeatherDisplay:10.37,2013-03-29 02:29:00,
2013-03-28 22:34:00,35.1,32.2,30.21,West,270,3.5,4.6,89,0.00,FEW,,0.35,WeatherDisplay:10.37,2013-03-29 02:34:00,
2013-03-28 22:39:00,35.1,32.2,30.21,SW,225,3.1,4.6,89,0.00,FEW,,0.35,WeatherDisplay:10.37,2013-03-29 02:39:00,
2013-03-28 22:44:00,35.1,32.2,30.21,West,270,5.3,5.8,89,0.00,FEW,,0.35,WeatherDisplay:10.37,2013-03-29 02:44:00,
2013-03-28 22:49:00,35.1,32.2,30.21,West,270,2.5,3.5,89,0.00,FEW,,0.35,WeatherDisplay:10.37,2013-03-29 02:49:00,
2013-03-28 22:54:00,35.1,32.2,30.21,West,270,3.9,4.2,89,0.00,FEW,,0.35,WeatherDisplay:10.37,2013-03-29 02:54:00,
2013-03-28 22:59:00,35.1,32.2,30.21,WSW,248,4.3,5.3,89,0.00,FEW,,0.35,WeatherDisplay:10.37,2013-03-29 02:59:00,
2013-03-28 23:04:00,35.1,32.2,30.21,West,270,5.2,5.8,89,0.00,FEW,,0.35,WeatherDisplay:10.37,2013-03-29 03:04:00,
2013-03-28 23:09:00,35.1,32.2,30.21,NNE,22,4.7,4.7,89,0.00,FEW,,0.35,WeatherDisplay:10.37,2013-03-29 03:09:00,
2013-03-28 23:14:00,35.1,32.2,30.21,NW,315,4.2,4.7,89,0.00,FEW,,0.35,WeatherDisplay:10.37,2013-03-29 03:14:00,
2013-03-28 23:19:00,35.1,32.2,30.20,WSW,248,3.8,4.6,89,0.00,FEW,,0.35,WeatherDisplay:10.37,2013-03-29 03:19:00,
2013-03-28 23:24:00,35.1,32.2,30.20,WSW,248,3.8,5.8,89,0.00,FEW,,0.35,WeatherDisplay:10.37,2013-03-29 03:24:00,
2013-03-28 23:29:00,35.1,32.2,30.21,West,270,2.8,3.5,89,0.00,FEW,,0.35,WeatherDisplay:10.37,2013-03-29 03:29:00,
2013-03-28 23:34:00,35.1,32.2,30.21,West,270,4.4,4.7,89,0.00,OVC,,0.35,WeatherDisplay:10.37,2013-03-29 03:34:00,
2013-03-28 23:39:00,35.1,32.2,30.21,West,270,4.0,5.8,89,0.00,OVC,,0.35,WeatherDisplay:10.37,2013-03-29 03:39:00,
2013-03-28 23:44:00,35.1,32.2,30.21,West,270,3.3,4.6,89,0.00,OVC,,0.35,WeatherDisplay:10.37,2013-03-29 03:44:00,
2013-03-28 23:49:00,34.9,32.0,30.21,West,270,2.5,3.5,89,0.00,OVC,,0.35,WeatherDisplay:10.37,2013-03-29 03:49:00,
2013-03-28 23:54:00,34.9,32.0,30.22,SW,225,3.1,3.5,89,0.00,OVC,,0.35,WeatherDisplay:10.37,2013-03-29 03:54:00,
2013-03-28 23:59:00,34.9,32.0,30.22,West,270,2.9,4.7,89,0.00,OVC,,0.35,WeatherDisplay:10.37,2013-03-29 03:59:00,